Flag for Guinea Weather past 2 weeks in Conakry, Guinea

Now
79 °F

Passing clouds.


Feels Like: 83 °F
Forecast: 79 / 82 °F
Wind: 5 mph from West

Location: Conakry / Gbessia

Current Time: Jul 25, 2014 at 3:45:55 AM

Latest Report: Jul 25, 2014 at 3:00 AM


Visibility: N/A

Pressure: 29.92 "Hg

Humidity: 94%

Dew point: 77 °F

Location of ConakryLocation

Historic Weather in Conakry — Graph

°F

Conakry temperature yesterday

Maximum temperature yesterday: 86 °F (at 1:00 PM)
Minimum temperature yesterday: 75 °F (at 4:00 AM)
Average temperature yesterday: 80 °F

Past Weeks' High & Low Weather Summary

 TemperatureHumidityPressure
High86 °F (Jul 11, 12:00 PM)100% (Jul 10, 6:00 AM)30.07 "Hg (Jul 10, 6:00 AM)
Low72 °F (Jul 17, 5:00 AM)62% (Jul 20, 4:00 PM)29.89 "Hg (Jul 21, 6:00 PM)
Average79 °F89%29.98 "Hg
* Reported Jul 10 6:00 AM — Jul 25 2:00 AM, Conakry, Weather by CustomWeather, © 2014

Note: Actual official high and low records may vary slightly from our data, if they occured in-between our weather recording intervals... More about our weather records

Advertising

Conakry weather history for previous 24 hours

 ConditionsComfort  
Time TempWeatherWind HumidityBarometerVisibility
2:00 AM
Jul 25
81 °FPartly cloudy.5 mph94%29.95 "HgN/A
1:00 AM81 °FPartly cloudy.7 mph94%29.95 "HgN/A
12:00 AM81 °FPassing clouds.5 mph94%29.98 "HgN/A
11:00 PM
Jul 24
81 °FPassing clouds.5 mph94%29.98 "HgN/A
10:00 PM81 °FPartly cloudy.7 mph94%29.95 "HgN/A
9:00 PM81 °FPartly cloudy.5 mph94%29.95 "HgN/A
8:00 PM81 °FPartly cloudy.5 mph94%29.95 "HgN/A
7:00 PM82 °FBroken clouds.7 mph84%29.92 "HgN/A
6:00 PM84 °FBroken clouds.9 mph74%29.92 "HgN/A
5:00 PM84 °FBroken clouds.12 mph79%29.89 "HgN/A
4:00 PM86 °FPartly sunny.12 mph79%29.95 "HgN/A
3:00 PM82 °FPartly sunny.12 mph89%29.95 "HgN/A
2:00 PM86 °FPartly sunny.12 mph75%29.95 "HgN/A
1:00 PM86 °FPartly sunny.5 mph70%29.98 "HgN/A
12:00 PM84 °FPartly sunny.7 mph79%30.01 "HgN/A
11:00 AM82 °FBroken clouds.5 mph79%30.01 "HgN/A
10:00 AM81 °FPartly sunny.5 mph84%30.04 "HgN/A
8:00 AM75 °FBroken clouds.5 mph100%30.01 "HgN/A
7:00 AM75 °FBroken clouds.5 mph100%30.01 "HgN/A
6:00 AM75 °FPartly cloudy.5 mph100%29.98 "HgN/A
5:00 AM75 °FThunderstorms. Passing clouds.2 mph100%29.98 "Hg3 mi
4:00 AM75 °FPartly cloudy.5 mph100%29.98 "HgN/A
Weather by CustomWeather, © 2014

See weather overviewHow to use our weather pages